Location: Zilina
(0.0000°N, 18.7333°E)
Time: 10:25:05
(UTC+02:00)

Genesis I - Pass Details

Date: 19 February 2019
Orbit: 487 x 537 km, 64.5° (Epoch: 19 October)

Event Time Altitude Azimuth Distance (km) Brightness Sun altitude
Rises 18:47:53 0° 188° (S) 2,576 7.0 -12.0°
Reaches altitude 10° 18:50:09 10° 179° (S) 1,699 5.9 -12.6°
Maximum altitude 18:53:38 35° 112° (ESE) 830 3.8 -13.4°
Enters shadow 18:55:24 23° 63° (ENE) 1,122 4.3 -13.9°
